Weather History for Richlands, VA

Change the Weather History Date:

Monday, December 31, 2012

  Actual Average (KBLF) Record (KBLF)
Temperature  
Mean Temperature 28 °F 34 °F  
Max Temperature 37 °F 42 °F 72 °F (1972)
Min Temperature 19 °F 27 °F 3 °F (1983)
Degree Days  
Heating Degree Days 37 30  
Month to date heating degree days 860  
Since 1 July heating degree days 1765  
Cooling Degree Days 0 0  
Month to date cooling degree days 0  
Year to date cooling degree days 853  
Moisture  
Dew Point 18 °F    
Average Humidity 65    
Maximum Humidity 100    
Minimum Humidity 41    
Precipitation  
Precipitation 0.00 in 0.09 in 1.53 in (1975)
Month to date precipitation 2.91  
Year to date precipitation 39.63  
Snow  
Snow 0.00 in - - ()
Month to date snowfall  
Since 1 July snowfall  
Snow Depth -    
Sea Level Pressure  
Sea Level Pressure 30.19 in    
Wind  
Wind Speed 3 mph (SW)    
Max Wind Speed 10 mph    
Max Gust Speed -    
Visibility 10 miles    
Events      
T = Trace of Precipitation, MM = Missing Value Source: NWS Daily Summary

Daily Weather History Graph

Daily Weather History Graph

Search for Another Location

Airport:

Trip Planner

Search our weather history database for the weather conditions in past years. The results will help you decide how hot, cold, wet, or windy it might be!

Date:

Astronomy

Dec. 31, 2012 Rise Set
Actual Time 7:40 AM EST 5:20 PM EST
Civil Twilight 7:11 AM EST 5:49 PM EST
Nautical Twilight 6:39 AM EST 6:21 PM EST
Astronomical Twilight 6:07 AM EST 6:53 PM EST
Moon 8:44 PM EST (12/31) 9:26 AM EST (12/31)
Length of Visible Light 10h 37m
Length of Day
9h 39m
Waning Gibbous, 90% of the Moon is Illuminated
Dec 31
Waning Gibbous
Jan 4
Last Quarter
Jan 11
New
Jan 18
First Quarter
Jan 26
Full

Hourly Weather History & Observations

Time (EST) Temp. Windchill Dew Point Humidity Pressure Visibility Wind Dir Wind Speed Gust Speed Precip Events Conditions
12:15 AM 24.8 °F - 19.4 °F 80% 30.30 in 10.0 mi Calm Calm - N/A   Clear
12:35 AM 23.0 °F - 19.4 °F 86% 30.28 in 10.0 mi Calm Calm - N/A   Clear
12:55 AM 23.0 °F - 19.4 °F 86% 30.28 in 10.0 mi Calm Calm - N/A   Clear
1:15 AM 23.0 °F - 19.4 °F 86% 30.28 in 10.0 mi Calm Calm - N/A   Clear
1:35 AM 23.0 °F - 19.4 °F 86% 30.27 in 10.0 mi Calm Calm - N/A   Clear
1:55 AM 19.4 °F - 19.4 °F 100% 30.27 in 10.0 mi Calm Calm - N/A   Clear
2:15 AM 21.2 °F - 19.4 °F 93% 30.27 in 10.0 mi Calm Calm - N/A   Clear
2:35 AM 21.2 °F - 19.4 °F 93% 30.26 in 10.0 mi Calm Calm - N/A   Clear
2:55 AM 23.0 °F - 19.4 °F 86% 30.28 in 10.0 mi Calm Calm - N/A   Clear
3:15 AM 21.2 °F - 19.4 °F 93% 30.27 in 10.0 mi Calm Calm - N/A   Clear
3:35 AM 21.2 °F 16.4 °F 19.4 °F 93% 30.26 in 10.0 mi SE 3.5 mph - N/A   Clear
3:55 AM 21.2 °F 16.4 °F 19.4 °F 93% 30.25 in 10.0 mi SSE 3.5 mph - N/A   Clear
4:15 AM 21.2 °F - 19.4 °F 93% 30.24 in 10.0 mi Calm Calm - N/A   Clear
4:35 AM 24.8 °F 20.5 °F 19.4 °F 80% 30.23 in 10.0 mi South 3.5 mph - N/A   Clear
4:55 AM 21.2 °F - 19.4 °F 93% 30.24 in 10.0 mi Calm Calm - N/A   Clear
5:15 AM 19.4 °F 14.3 °F 17.6 °F 93% 30.23 in 10.0 mi South 3.5 mph - N/A   Clear
5:35 AM 19.4 °F 14.3 °F 17.6 °F 93% 30.22 in 10.0 mi SE 3.5 mph - N/A   Clear
5:55 AM 19.4 °F - 19.4 °F 100% 30.22 in 10.0 mi Calm Calm - N/A   Clear
6:15 AM 21.2 °F - 19.4 °F 93% 30.24 in 10.0 mi Calm Calm - N/A   Clear
6:35 AM 23.0 °F - 19.4 °F 86% 30.24 in 10.0 mi Calm Calm - N/A   Clear
7:35 AM 21.2 °F 16.4 °F 17.6 °F 86% 30.24 in 10.0 mi Variable 3.5 mph - N/A   Clear
7:55 AM 23.0 °F - 19.4 °F 86% 30.25 in 10.0 mi Calm Calm - N/A   Clear
8:35 AM 28.4 °F 23.3 °F 17.6 °F 64% 30.24 in 10.0 mi WSW 4.6 mph - N/A   Clear
8:55 AM 28.4 °F 22.2 °F 17.6 °F 64% 30.24 in 10.0 mi WSW 5.8 mph - N/A   Clear
9:15 AM 28.4 °F 22.2 °F 19.4 °F 69% 30.24 in 10.0 mi WSW 5.8 mph - N/A   Clear
9:35 AM 30.2 °F 23.4 °F 17.6 °F 60% 30.23 in 10.0 mi WSW 6.9 mph - N/A   Clear
9:55 AM 30.2 °F 23.4 °F 17.6 °F 60% 30.23 in 10.0 mi WSW 6.9 mph - N/A   Clear
10:15 AM 33.8 °F 27.0 °F 17.6 °F 52% 30.23 in 10.0 mi WSW 8.1 mph - N/A   Clear
10:35 AM 33.8 °F 28.6 °F 17.6 °F 52% 30.25 in 10.0 mi Variable 5.8 mph - N/A   Clear
10:55 AM 33.8 °F 26.4 °F 17.6 °F 52% 30.25 in 10.0 mi WSW 9.2 mph - N/A   Clear
11:15 AM 33.8 °F 27.7 °F 17.6 °F 52% 30.24 in 10.0 mi Variable 6.9 mph - N/A   Clear
11:35 AM 35.6 °F 32.8 °F 17.6 °F 48% 30.22 in 10.0 mi Variable 3.5 mph - N/A   Clear
11:55 AM 35.6 °F 30.7 °F 17.6 °F 48% 30.20 in 10.0 mi Variable 5.8 mph - N/A   Clear
12:15 PM 35.6 °F 31.7 °F 17.6 °F 48% 30.20 in 10.0 mi Variable 4.6 mph - N/A   Clear
12:35 PM 35.6 °F 30.7 °F 15.8 °F 44% 30.18 in 10.0 mi Variable 5.8 mph - N/A   Clear
12:55 PM 35.6 °F 30.7 °F 15.8 °F 44% 30.17 in 10.0 mi SW 5.8 mph - N/A   Clear
1:15 PM 37.4 °F 32.8 °F 17.6 °F 45% 30.16 in 10.0 mi WSW 5.8 mph - N/A   Clear
1:35 PM 37.4 °F 33.8 °F 15.8 °F 41% 30.15 in 10.0 mi Variable 4.6 mph - N/A   Clear
1:55 PM 37.4 °F 30.8 °F 15.8 °F 41% 30.16 in 10.0 mi WSW 9.2 mph - N/A   Clear
2:15 PM 37.4 °F 33.8 °F 17.6 °F 45% 30.15 in 10.0 mi WSW 4.6 mph - N/A   Clear
2:35 PM 35.6 °F 30.7 °F 17.6 °F 48% 30.14 in 10.0 mi Variable 5.8 mph - N/A   Partly Cloudy
2:55 PM 35.6 °F 31.7 °F 15.8 °F 44% 30.14 in 10.0 mi Variable 4.6 mph - N/A   Partly Cloudy
3:15 PM 35.6 °F 31.7 °F 17.6 °F 48% 30.15 in 10.0 mi Variable 4.6 mph - N/A   Scattered Clouds
3:35 PM 33.8 °F 28.6 °F 17.6 °F 52% 30.12 in 10.0 mi Variable 5.8 mph - N/A   Partly Cloudy
3:55 PM 33.8 °F - 19.4 °F 56% 30.11 in 10.0 mi Calm Calm - N/A   Scattered Clouds
4:15 PM 35.6 °F 31.7 °F 17.6 °F 48% 30.11 in 10.0 mi West 4.6 mph - N/A   Scattered Clouds
4:35 PM 35.6 °F 30.7 °F 14.0 °F 41% 30.12 in 10.0 mi West 5.8 mph - N/A   Scattered Clouds
4:55 PM 33.8 °F 27.7 °F 15.8 °F 48% 30.12 in 10.0 mi WSW 6.9 mph - N/A   Partly Cloudy
5:15 PM 33.8 °F 25.8 °F 15.8 °F 48% 30.14 in 10.0 mi WSW 10.4 mph - N/A   Partly Cloudy
5:35 PM 33.8 °F 26.4 °F 17.6 °F 52% 30.13 in 10.0 mi WSW 9.2 mph - N/A   Partly Cloudy
5:55 PM 33.8 °F 27.0 °F 17.6 °F 52% 30.13 in 10.0 mi WSW 8.1 mph - N/A   Scattered Clouds
6:15 PM 33.8 °F 27.7 °F 15.8 °F 48% 30.11 in 10.0 mi Variable 6.9 mph - N/A   Unknown
6:35 PM 33.8 °F 30.8 °F 15.8 °F 48% 30.11 in 10.0 mi Variable 3.5 mph - N/A   Clear
6:55 PM 33.8 °F 30.8 °F 15.8 °F 48% 30.10 in 10.0 mi Variable 3.5 mph - N/A   Clear
7:15 PM 33.8 °F - 17.6 °F 52% 30.10 in 10.0 mi Calm Calm - N/A   Clear
7:35 PM 33.8 °F 27.7 °F 17.6 °F 52% 30.10 in 10.0 mi West 6.9 mph - N/A   Clear
7:55 PM 33.8 °F 30.8 °F 17.6 °F 52% 30.10 in 10.0 mi Variable 3.5 mph - N/A   Clear
8:15 PM 33.8 °F 28.6 °F 19.4 °F 56% 30.09 in 10.0 mi Variable 5.8 mph - N/A   Clear
8:35 PM 33.8 °F 29.6 °F 17.6 °F 52% 30.09 in 10.0 mi WSW 4.6 mph - N/A   Clear
8:55 PM 33.8 °F - 19.4 °F 56% 30.07 in 10.0 mi Calm Calm - N/A   Clear
9:35 PM 32.0 °F 27.5 °F 21.2 °F 64% 30.08 in 10.0 mi West 4.6 mph - N/A   Mostly Cloudy
9:55 PM 33.8 °F 28.6 °F 21.2 °F 60% 30.08 in 10.0 mi SW 5.8 mph - N/A   Overcast
10:35 PM 33.8 °F 30.8 °F 17.6 °F 52% 30.07 in 10.0 mi Variable 3.5 mph - N/A   Overcast
11:55 PM 33.8 °F 29.6 °F 21.2 °F 60% 30.06 in 10.0 mi Variable 4.6 mph - N/A   Overcast